When you browse on this site, cookies collect data to enhance your experience and personalize the content and advertising you see.
Visit our Privacy Policy to learn more. By continuing to use the site, you agree to this use of cookies and data.
  • în România
  • Lista ţărilor
  • Pe 7 zile
  • Temperatura apei
  • Meteo pe hartă
  • Widget-uri
  • user-avatar
    Intrare

    Meteo pe oră la Hakodate

    Astăzi, 22 Ianuarie, Miercuri

    Timp Temperatura Precipitaţii Vânt Presiune Umiditate
    00:00 -5°C° 0 mm 6 m/s 767 mmHg 76%
    01:00 -5°C° 0 mm 6 m/s 767 mmHg 76%
    02:00 -5°C° 0 mm 6 m/s 767 mmHg 76%
    03:00 -5°C° 0 mm 6 m/s 767 mmHg 74%
    04:00 -4°C° 0 mm 6 m/s 766 mmHg 74%
    05:00 -4°C° 0 mm 6 m/s 766 mmHg 73%
    06:00 -4°C° 0 mm 6 m/s 766 mmHg 73%
    07:00 -3°C° 0 mm 6 m/s 766 mmHg 70%
    08:00 -2°C° 0 mm 6 m/s 766 mmHg 66%
    09:00 -1°C° 0 mm 6 m/s 766 mmHg 63%
    10:00 -1°C° 0 mm 6 m/s 766 mmHg 65%
    11:00 +1°C° 0 mm 6 m/s 766 mmHg 66%
    12:00 +1°C° 0 mm 6 m/s 765 mmHg 67%
    13:00 +1°C° 0 mm 6 m/s 765 mmHg 68%
    14:00 0°C° 0 mm 7 m/s 764 mmHg 68%
    15:00 +2°C° 0 mm 7 m/s 764 mmHg 69%
    16:00 0°C° 0 mm 7 m/s 764 mmHg 75%
    17:00 0°C° 0 mm 7 m/s 764 mmHg 82%
    18:00 0°C° 0 mm 7 m/s 764 mmHg 88%
    19:00 +1°C° 0.2 mm 8 m/s 764 mmHg 87%
    20:00 +1°C° 0.2 mm 9 m/s 763 mmHg 87%
    21:00 +2°C° 0.2 mm 10 m/s 763 mmHg 86%
    22:00 +2°C° 0.8 mm 10 m/s 763 mmHg 86%
    23:00 +2°C° 0.8 mm 10 m/s 763 mmHg 87%

    Mâine, 23 Ianuarie, Joi

    Timp Temperatura Precipitaţii Vânt Presiune Umiditate
    00:00 +2°C° 0.8 mm 10 m/s 762 mmHg 87%
    01:00 +1°C° 0.1 mm 8 m/s 762 mmHg 86%
    02:00 0°C° 0.1 mm 7 m/s 763 mmHg 85%
    03:00 -1°C° 0.1 mm 6 m/s 763 mmHg 84%
    04:00 0°C° 0 mm 5 m/s 763 mmHg 83%
    05:00 -1°C° 0 mm 4 m/s 763 mmHg 83%
    06:00 -2°C° 0 mm 4 m/s 763 mmHg 83%
    07:00 -1°C° 0 mm 4 m/s 763 mmHg 80%
    08:00 +1°C° 0 mm 3 m/s 763 mmHg 77%
    09:00 +2°C° 0 mm 3 m/s 764 mmHg 74%
    10:00 +2°C° 0 mm 3 m/s 763 mmHg 71%
    11:00 +2°C° 0 mm 3 m/s 763 mmHg 68%
    12:00 +3°C° 0 mm 3 m/s 763 mmHg 66%
    13:00 +3°C° 0 mm 3 m/s 762 mmHg 66%
    14:00 +3°C° 0 mm 2 m/s 762 mmHg 66%
    15:00 +3°C° 0 mm 2 m/s 762 mmHg 66%
    16:00 +2°C° 0 mm 2 m/s 762 mmHg 69%
    17:00 +1°C° 0 mm 2 m/s 762 mmHg 71%
    18:00 +1°C° 0 mm 2 m/s 762 mmHg 73%
    19:00 -1°C° 0 mm 2 m/s 762 mmHg 72%
    20:00 -1°C° 0 mm 2 m/s 762 mmHg 72%
    21:00 -1°C° 0 mm 2 m/s 762 mmHg 72%
    22:00 -1°C° 0 mm 2 m/s 762 mmHg 72%
    23:00 -1°C° 0 mm 2 m/s 762 mmHg 72%

    Poimâine, 24 Ianuarie, Vineri

    Timp Temperatura Precipitaţii Vânt Presiune Umiditate
    00:00 -1°C° 0 mm 2 m/s 762 mmHg 73%
    01:00 -1°C° 0 mm 3 m/s 761 mmHg 74%
    02:00 0°C° 0 mm 3 m/s 761 mmHg 76%
    03:00 0°C° 0 mm 3 m/s 761 mmHg 78%
    04:00 -1°C° 0 mm 4 m/s 761 mmHg 80%
    05:00 -1°C° 0 mm 5 m/s 761 mmHg 83%
    06:00 -1°C° 0 mm 6 m/s 761 mmHg 86%
    07:00 -2°C° 0.1 mm 7 m/s 761 mmHg 85%
    08:00 -2°C° 0.1 mm 8 m/s 762 mmHg 85%
    09:00 -3°C° 0.1 mm 9 m/s 762 mmHg 84%
    10:00 -4°C° 0.1 mm 9 m/s 762 mmHg 80%
    11:00 -5°C° 0.1 mm 10 m/s 762 mmHg 75%
    12:00 -5°C° 0.1 mm 10 m/s 762 mmHg 71%
    13:00 -7°C° 0.1 mm 10 m/s 763 mmHg 74%
    14:00 -9°C° 0.1 mm 10 m/s 763 mmHg 77%
    15:00 -10°C° 0.1 mm 10 m/s 764 mmHg 80%
    16:00 -11°C° 0.1 mm 11 m/s 764 mmHg 82%
    17:00 -11°C° 0.1 mm 11 m/s 765 mmHg 83%
    18:00 -12°C° 0.1 mm 11 m/s 766 mmHg 85%
    19:00 -12°C° 0.2 mm 10 m/s 766 mmHg 85%
    20:00 -12°C° 0.2 mm 10 m/s 767 mmHg 85%
    21:00 -12°C° 0.2 mm 10 m/s 767 mmHg 85%
    22:00 -12°C° 0.1 mm 10 m/s 767 mmHg 84%
    23:00 -12°C° 0.1 mm 10 m/s 768 mmHg 83%

    25 Ianuarie, Sâmbătă

    Timp Temperatura Precipitaţii Vânt Presiune Umiditate
    00:00 -12°C° 0.1 mm 10 m/s 768 mmHg 81%
    01:00 -12°C° 0 mm 10 m/s 768 mmHg 82%
    02:00 -11°C° 0 mm 9 m/s 769 mmHg 82%
    03:00 -11°C° 0 mm 9 m/s 769 mmHg 83%
    04:00 -11°C° 0 mm 9 m/s 769 mmHg 83%
    05:00 -11°C° 0 mm 8 m/s 769 mmHg 83%
    06:00 -11°C° 0 mm 8 m/s 770 mmHg 84%
    07:00 -9°C° 0 mm 7 m/s 770 mmHg 81%
    08:00 -9°C° 0 mm 7 m/s 770 mmHg 78%
    09:00 -9°C° 0 mm 7 m/s 770 mmHg 75%
    10:00 -8°C° 0 mm 7 m/s 770 mmHg 74%
    11:00 -7°C° 0 mm 7 m/s 770 mmHg 72%
    12:00 -7°C° 0 mm 7 m/s 770 mmHg 71%
    13:00 -7°C° 0 mm 7 m/s 770 mmHg 70%
    14:00 -7°C° 0 mm 7 m/s 769 mmHg 69%
    15:00 -7°C° 0 mm 7 m/s 769 mmHg 69%
    16:00 -7°C° 0 mm 7 m/s 770 mmHg 69%
    17:00 -8°C° 0 mm 6 m/s 770 mmHg 69%
    18:00 -8°C° 0 mm 6 m/s 770 mmHg 70%
    19:00 -7°C° 0 mm 5 m/s 770 mmHg 71%
    20:00 -7°C° 0 mm 5 m/s 770 mmHg 72%
    21:00 -7°C° 0 mm 4 m/s 770 mmHg 73%
    22:00 -7°C° 0 mm 4 m/s 770 mmHg 74%
    23:00 -7°C° 0 mm 4 m/s 769 mmHg 74%

    26 Ianuarie, Duminică

    Timp Temperatura Precipitaţii Vânt Presiune Umiditate
    00:00 -7°C° 0 mm 4 m/s 769 mmHg 75%
    01:00 -6°C° 0 mm 3 m/s 769 mmHg 76%
    02:00 -7°C° 0 mm 3 m/s 769 mmHg 77%
    03:00 -7°C° 0 mm 3 m/s 769 mmHg 77%
    04:00 -7°C° 0 mm 3 m/s 769 mmHg 78%
    05:00 -7°C° 0 mm 3 m/s 768 mmHg 78%
    06:00 -7°C° 0 mm 3 m/s 768 mmHg 79%
    07:00 -6°C° 0 mm 3 m/s 768 mmHg 76%
    08:00 -4°C° 0 mm 2 m/s 768 mmHg 73%
    09:00 -3°C° 0 mm 2 m/s 768 mmHg 70%
    10:00 -2°C° 0 mm 2 m/s 768 mmHg 66%
    11:00 -1°C° 0 mm 2 m/s 767 mmHg 62%
    12:00 +1°C° 0 mm 2 m/s 766 mmHg 58%
    13:00 +1°C° 0 mm 2 m/s 766 mmHg 57%
    14:00 -1°C° 0 mm 2 m/s 766 mmHg 57%
    15:00 -1°C° 0 mm 2 m/s 766 mmHg 56%
    16:00 -2°C° 0 mm 3 m/s 766 mmHg 60%
    17:00 -4°C° 0 mm 3 m/s 766 mmHg 64%
    18:00 -5°C° 0 mm 3 m/s 766 mmHg 69%
    19:00 -5°C° 0 mm 3 m/s 766 mmHg 68%
    20:00 -5°C° 0 mm 4 m/s 766 mmHg 68%
    21:00 -5°C° 0 mm 4 m/s 766 mmHg 68%
    22:00 -5°C° 0 mm 4 m/s 766 mmHg 68%
    23:00 -5°C° 0 mm 4 m/s 766 mmHg 69%

    27 Ianuarie, Luni

    Timp Temperatura Precipitaţii Vânt Presiune Umiditate
    00:00 -6°C° 0 mm 5 m/s 766 mmHg 70%
    01:00 -6°C° 0 mm 5 m/s 765 mmHg 70%
    02:00 -6°C° 0 mm 5 m/s 765 mmHg 70%
    03:00 -5°C° 0 mm 6 m/s 765 mmHg 70%
    04:00 -6°C° 0 mm 6 m/s 765 mmHg 71%
    05:00 -6°C° 0 mm 6 m/s 765 mmHg 72%
    06:00 -6°C° 0 mm 6 m/s 766 mmHg 73%
    07:00 -5°C° 0 mm 5 m/s 766 mmHg 70%
    08:00 -4°C° 0 mm 5 m/s 766 mmHg 68%
    09:00 -4°C° 0 mm 5 m/s 766 mmHg 65%
    10:00 -2°C° 0 mm 5 m/s 766 mmHg 63%
    11:00 -1°C° 0 mm 4 m/s 766 mmHg 60%
    12:00 -1°C° 0 mm 4 m/s 765 mmHg 58%
    13:00 -1°C° 0 mm 4 m/s 765 mmHg 59%
    14:00 -1°C° 0 mm 4 m/s 765 mmHg 59%
    15:00 -1°C° 0 mm 4 m/s 765 mmHg 60%
    16:00 -2°C° 0 mm 4 m/s 766 mmHg 64%
    17:00 -2°C° 0 mm 3 m/s 766 mmHg 69%
    18:00 -4°C° 0 mm 3 m/s 766 mmHg 73%
    19:00 -4°C° 0 mm 3 m/s 766 mmHg 72%
    20:00 -3°C° 0 mm 2 m/s 766 mmHg 70%
    21:00 -3°C° 0 mm 2 m/s 767 mmHg 69%
    22:00 -5°C° 0 mm 3 m/s 767 mmHg 69%
    23:00 -5°C° 0 mm 3 m/s 767 mmHg 68%
    Arată mai mult